Weather History for London, United Kingdom

Change the Weather History Date:

Friday, April 11, 2014

  Actual Average Record
Temperature  
Mean Temperature 54 °F -  
Max Temperature 60 °F 58 °F 68 °F (2011)
Min Temperature 49 °F 43 °F 32 °F (2003)
Degree Days  
Heating Degree Days 10    
Growing Degree Days 4 (Base 50)    
Moisture  
Dew Point 39 °F    
Average Humidity 53    
Maximum Humidity 71    
Minimum Humidity 28    
Precipitation  
Precipitation 0.00 in - - ()
Sea Level Pressure  
Sea Level Pressure 30.16 in    
Wind  
Wind Speed 4 mph ()    
Max Wind Speed 8 mph    
Max Gust Speed -    
Visibility 11.3 miles    
Events      
Averages and records for this station are not official NWS values.
T = Trace of Precipitation, MM = Missing Value Source: Averaged Metar Reports

Daily Weather History Graph

Daily Weather History Graph

Search for Another Location

Airport:

Trip Planner

Search our weather history database for the weather conditions in past years. The results will help you decide how hot, cold, wet, or windy it might be!

Date:

Astronomy

Apr. 11, 2014 Rise Set
Actual Time 6:15 AM BST 7:51 PM BST
Civil Twilight 5:40 AM BST 8:26 PM BST
Nautical Twilight 4:57 AM BST 9:09 PM BST
Astronomical Twilight 4:10 AM BST 9:57 PM BST
Moon 3:54 PM BST (4/11) 4:28 AM BST (4/11)
Length of Visible Light 14h 46m
Length of Day
13h 36m
Waxing Gibbous, 85% of the Moon is Illuminated
Apr 11
Waxing Gibbous
Apr 15
Full
Apr 22
Last Quarter
Apr 29
New
May 7
First Quarter

Hourly Weather History & Observations

Time (BST) Temp. Dew Point Humidity Pressure Visibility Wind Dir Wind Speed Gust Speed Precip Events Conditions
12:00 AM 54 °F 40 °F 47% 30.16 in 19 mi NNW 4.6 mph - -   Overcast
12:20 AM 53.6 °F 41.0 °F 62% 30.15 in - North 4.6 mph - N/A   Clear
12:50 AM 53.6 °F 41.0 °F 62% 30.15 in - North 3.5 mph - N/A   Clear
1:00 AM 53 °F 39 °F 48% 30.15 in 25 mi North 4.6 mph - -   Overcast
1:20 AM 51.8 °F 41.0 °F 67% 30.15 in 6.2 mi North 4.6 mph - N/A   Unknown
1:50 AM 51.8 °F 41.0 °F 67% 30.12 in 6.2 mi North 3.5 mph - N/A   Unknown
2:00 AM 52 °F 39 °F 51% 30.14 in 19 mi North 3.5 mph - -   Overcast
2:20 AM 51.8 °F 41.0 °F 67% 30.12 in 6.2 mi Variable 2.3 mph - N/A   Unknown
2:50 AM 51.8 °F 41.0 °F 67% 30.15 in - WNW 4.6 mph - N/A   Clear
3:00 AM 51 °F 40 °F 56% 30.15 in 18 mi WNW 4.6 mph - -   Overcast
3:20 AM 51.8 °F 41.0 °F 67% 30.15 in - NW 3.5 mph - N/A   Clear
3:50 AM 51.8 °F 41.0 °F 67% 30.12 in - WNW 4.6 mph - N/A   Clear
4:00 AM 50 °F 40 °F 60% 30.14 in 22 mi NW 3.5 mph - -   Overcast
4:20 AM 50.0 °F 41.0 °F 71% 30.12 in - NW 4.6 mph - N/A   Clear
4:50 AM 50.0 °F 41.0 °F 71% 30.12 in - Variable 3.5 mph - N/A   Clear
5:00 AM 50 °F 40 °F 60% 30.14 in 19 mi NW 3.5 mph - -   Overcast
5:20 AM 50.0 °F 41.0 °F 71% 30.15 in - Variable 3.5 mph - N/A   Clear
5:50 AM 50.0 °F 41.0 °F 71% 30.15 in - Variable 3.5 mph - N/A   Clear
6:00 AM 50 °F 40 °F 59% 30.15 in 16 mi NNW 3.5 mph - -   Overcast
6:20 AM 50.0 °F 41.0 °F 71% 30.15 in - North 4.6 mph - N/A   Clear
6:50 AM 50.0 °F 41.0 °F 71% 30.15 in - North 4.6 mph - N/A   Clear
7:00 AM 50 °F 40 °F 59% 30.17 in 17 mi North 4.6 mph - -  
7:20 AM 50.0 °F 41.0 °F 71% 30.18 in - North 4.6 mph - N/A   Clear
7:50 AM 50.0 °F 41.0 °F 71% 30.18 in 6.2 mi North 5.8 mph - N/A   Partly Cloudy
8:00 AM 51 °F 40 °F 57% 30.18 in 12 mi North 6.9 mph - -   Mostly Cloudy
8:20 AM 51.8 °F 41.0 °F 67% 30.18 in 6.2 mi Variable 3.5 mph - N/A   Partly Cloudy
8:50 AM 51.8 °F 41.0 °F 67% 30.18 in - NNE 6.9 mph - N/A   Clear
9:00 AM 52 °F 40 °F 54% 30.19 in 15 mi NNE 5.8 mph - -   Overcast
9:20 AM 51.8 °F 41.0 °F 67% 30.18 in - North 6.9 mph - N/A   Clear
9:50 AM 51.8 °F 41.0 °F 67% 30.18 in - NNE 5.8 mph - N/A   Clear
10:00 AM 53 °F 40 °F 50% 30.20 in 14 mi NNE 6.9 mph - -   Overcast
10:20 AM 53.6 °F 41.0 °F 62% 30.18 in 6.2 mi NNE 6.9 mph - N/A   Partly Cloudy
10:50 AM 55.4 °F 41.0 °F 58% 30.18 in 6.2 mi North 6.9 mph - N/A   Partly Cloudy
11:00 AM 55 °F 38 °F 42% 30.20 in 22 mi NNE 8.1 mph - -   Overcast
11:20 AM 55.4 °F 39.2 °F 54% 30.21 in 6.2 mi North 8.1 mph - N/A   Partly Cloudy
11:50 AM 57.2 °F 39.2 °F 51% 30.21 in 6.2 mi North 8.1 mph - N/A   Partly Cloudy
12:00 PM 57 °F 38 °F 38% 30.20 in 19 mi North 8.1 mph - -   Overcast
12:20 PM 57.2 °F 39.2 °F 51% 30.18 in 6.2 mi North 6.9 mph - N/A   Partly Cloudy
12:50 PM 59.0 °F 41.0 °F 51% 30.18 in 6.2 mi NE 5.8 mph - N/A   Partly Cloudy
1:00 PM 58 °F 37 °F 33% 30.19 in 22 mi North 6.9 mph - -   Scattered Clouds
1:20 PM 60.8 °F 39.2 °F 45% 30.18 in 6.2 mi NNW 6.9 mph - N/A   Scattered Clouds
1:50 PM 59.0 °F 37.4 °F 45% 30.18 in 6.2 mi Variable 3.5 mph - N/A   Partly Cloudy
2:20 PM 59.0 °F 37.4 °F 45% 30.18 in - North 4.6 mph - N/A   Clear
2:50 PM 59.0 °F 35.6 °F 42% 30.18 in - North 5.8 mph - N/A   Clear
3:00 PM 60 °F 36 °F 29% 30.18 in 22 mi NNW 5.8 mph - -   Mostly Cloudy
3:20 PM 59.0 °F 35.6 °F 42% 30.18 in - Variable 3.5 mph - N/A   Clear
3:50 PM 59.0 °F 35.6 °F 42% 30.18 in - WNW 4.6 mph - N/A   Clear
4:00 PM 59 °F 35 °F 29% 30.18 in 25 mi North 3.5 mph - -   Mostly Cloudy
4:20 PM 59.0 °F 35.6 °F 42% 30.15 in - NNW 5.8 mph - N/A   Clear
4:50 PM 59.0 °F 37.4 °F 45% 30.15 in - WNW 5.8 mph - N/A   Clear
5:00 PM 61 °F 36 °F 28% 30.17 in 25 mi WNW 5.8 mph - -   Scattered Clouds
5:20 PM 59.0 °F 37.4 °F 45% 30.15 in - NW 6.9 mph - N/A   Clear
5:50 PM 59.0 °F 35.6 °F 42% 30.15 in - North 4.6 mph - N/A   Clear
6:00 PM 59 °F 35 °F 28% 30.17 in 25 mi North 4.6 mph - -   Mostly Cloudy
6:20 PM 59.0 °F 35.6 °F 42% 30.15 in - Variable 3.5 mph - N/A   Clear
6:50 PM 59.0 °F 35.6 °F 42% 30.15 in - NW 5.8 mph - N/A   Clear
7:00 PM 58 °F 38 °F 35% 30.17 in 28 mi NW 4.6 mph - -   Mostly Cloudy
7:20 PM 57.2 °F 37.4 °F 48% 30.15 in - NNW 5.8 mph - N/A   Clear
7:50 PM 57.2 °F 35.6 °F 44% 30.15 in - Variable 2.3 mph - N/A   Clear
8:00 PM 56 °F 37 °F 37% 30.17 in 22 mi NNW 3.5 mph - -   Scattered Clouds
8:20 PM 57.2 °F 37.4 °F 48% 30.15 in - NW 3.5 mph - N/A   Clear
8:50 PM 55.4 °F 37.4 °F 51% 30.18 in - North 3.5 mph - N/A   Clear
9:00 PM 54 °F 38 °F 43% 30.18 in 15 mi North 3.5 mph - -  
9:20 PM 55.4 °F 37.4 °F 51% 30.18 in - North 3.5 mph - N/A   Clear
9:50 PM 55.4 °F 37.4 °F 51% 30.18 in - North 2.3 mph - N/A   Clear
10:00 PM 53 °F 38 °F 44% 30.18 in 16 mi North 3.5 mph - -  
10:20 PM 53.6 °F 37.4 °F 54% 30.18 in - North 3.5 mph - N/A   Clear
10:50 PM 53.6 °F 37.4 °F 54% 30.15 in - North 3.5 mph - N/A   Clear
11:00 PM 51 °F 37 °F 48% 30.17 in 13 mi North 3.5 mph - -  
11:20 PM 51.8 °F 37.4 °F 58% 30.15 in - North 3.5 mph - N/A   Clear
11:50 PM 50.0 °F 37.4 °F 62% 30.15 in - East 2.3 mph - N/A   Clear